Idaho Falls, ID

2:52 AM MST on February 20, 2018 (GMT -0700)
Fanning

Weather History for KIDA - August, 2014

Change the Weather History Date:

Saturday, August 23, 2014

  Actual Average Record
Temperature  
Mean Temperature 53 °F 66 °F  
Max Temperature 58 °F 84 °F 97 °F (1969)
Min Temperature 47 °F 47 °F 36 °F (1985)
Degree Days  
Heating Degree Days 12 2  
Month to date heating degree days 22 17  
Since 1 June heating degree days 152 197  
Since 1 July heating degree days 24 44  
Cooling Degree Days 0 2  
Month to date cooling degree days 76 80  
Year to date cooling degree days 279 235  
Since 1 June cooling degree days 278 233  
Growing Degree Days 2 (Base 50)    
Moisture  
Dew Point 50 °F    
Average Humidity 89    
Maximum Humidity 100    
Minimum Humidity 77    
Precipitation  
Precipitation 0.17 in 0.02 in 0.35 in (2009)
Month to date precipitation 2.28 0.37  
Year to date precipitation 6.23 6.81  
Sea Level Pressure  
Sea Level Pressure 30.03 in    
Wind  
Wind Speed 7 mph (SW)    
Max Wind Speed 21 mph    
Max Gust Speed 24 mph    
Visibility 9 miles    
Events Rain , Thunderstorm    
T = Trace of Precipitation, MM = Missing Value Source: NWS Daily Summary

Daily Weather History Graph

Daily Weather History Graph

Search for Another Location

Airport or City:

Trip Planner

Search our weather history database for the weather conditions in past years. The results will help you decide how hot, cold, wet, or windy it might be!

Date:

Astronomy

Aug. 23, 2014 Rise Set
Actual Time 6:42 AM MDT 8:18 PM MDT
Civil Twilight 6:11 AM MDT 8:48 PM MDT
Nautical Twilight 5:35 AM MDT 9:25 PM MDT
Astronomical Twilight 4:55 AM MDT 10:04 PM MDT
Moon 5:00 AM MDT (8/23) 7:05 PM MDT (8/23)
Length of Visible Light 14h 36m
Length of Day
13h 36m
Waning Crescent, 3% of the Moon is Illuminated
Aug 23
Waning Crescent
Aug 25
New
Sep 2
First Quarter
Sep 8
Full
Sep 15
Last Quarter

Hourly Weather History & Observations

Time (MDT) Temp. Dew Point Humidity Pressure Visibility Wind Dir Wind Speed Gust Speed Precip Events Conditions
12:53 AM 50.0 °F 48.9 °F 96% 29.98 in 10.0 mi Calm Calm - N/A   Clear
1:10 AM 48.0 °F 46.0 °F 93% 30.04 in 1.8 mi NW 3.5 mph - N/A   Clear
1:24 AM 48.9 °F 46.9 °F 93% 30.04 in 2.5 mi West 3.5 mph - N/A   Mostly Cloudy
1:31 AM 50.0 °F 48.9 °F 96% 30.04 in 10.0 mi West 3.5 mph - N/A   Mostly Cloudy
1:41 AM 50.0 °F 48.9 °F 96% 30.03 in 10.0 mi Calm Calm - N/A   Overcast
1:53 AM 51.1 °F 48.9 °F 92% 29.96 in 10.0 mi Calm Calm - N/A   Overcast
2:03 AM 51.1 °F 50.0 °F 96% 30.02 in 10.0 mi Calm Calm - N/A   Overcast
3:17 AM 52.0 °F 50.0 °F 93% 30.01 in 10.0 mi Calm Calm - N/A   Overcast
3:26 AM 51.1 °F 50.0 °F 96% 30.02 in 9.0 mi West 4.6 mph - N/A   Overcast
3:53 AM 52.0 °F 50.0 °F 93% 29.95 in 10.0 mi Calm Calm - N/A   Overcast
5:48 AM 51.8 °F 51.8 °F 100% 30.01 in 6.0 mi WSW 4.6 mph - 0.01 in Rain , Thunderstorm Light Rain
6:25 AM 53.1 °F 51.1 °F 93% 30.02 in 10.0 mi SSW 6.9 mph - 0.01 in   Overcast
6:35 AM 53.1 °F 51.1 °F 93% 30.02 in 10.0 mi SW 10.4 mph - 0.01 in Thunderstorm Overcast
6:42 AM 52.0 °F 51.1 °F 97% 30.02 in 10.0 mi SW 10.4 mph - 0.01 in Thunderstorm Overcast
6:53 AM 52.0 °F 51.1 °F 97% 29.97 in 10.0 mi SSW 10.4 mph - 0.01 in   Overcast
7:00 AM 52.0 °F 51.1 °F 97% 30.03 in 10.0 mi SW 9.2 mph - N/A   Overcast
7:53 AM 52.0 °F 50.0 °F 93% 29.99 in 10.0 mi SSW 10.4 mph - N/A   Overcast
8:53 AM 52.0 °F 50.0 °F 93% 30.01 in 10.0 mi SSW 11.5 mph - N/A   Overcast
9:00 AM 52.0 °F 50.0 °F 93% 30.05 in 10.0 mi SSW 12.7 mph - N/A   Overcast
9:53 AM 54.0 °F 50.0 °F 86% 30.00 in 10.0 mi SSW 15.0 mph - N/A   Mostly Cloudy
10:32 AM 54.0 °F 50.0 °F 86% 30.06 in 10.0 mi SW 11.5 mph - N/A   Overcast
10:53 AM 54.0 °F 48.9 °F 83% 30.02 in 10.0 mi SW 13.8 mph - N/A   Overcast
11:53 AM 55.0 °F 50.0 °F 83% 30.01 in 10.0 mi SW 11.5 mph - N/A   Overcast
12:53 PM 57.0 °F 50.0 °F 77% 30.01 in 10.0 mi SW 16.1 mph - N/A   Overcast
1:20 PM 54.0 °F 51.1 °F 90% 30.07 in 10.0 mi SW 17.3 mph - 0.00 in Rain , Thunderstorm Light Rain
1:53 PM 53.1 °F 50.0 °F 89% 30.04 in 6.0 mi SSW 10.4 mph - 0.05 in Rain Light Rain
3:53 PM 55.0 °F 50.0 °F 83% 30.02 in 10.0 mi South 6.9 mph - 0.01 in   Overcast
4:53 PM 54.0 °F 48.9 °F 83% 30.03 in 6.0 mi Calm Calm - 0.07 in Rain Rain
5:53 PM 57.0 °F 51.1 °F 81% 30.03 in 10.0 mi SSW 6.9 mph - 0.01 in   Overcast
6:21 PM 55.9 °F 50.0 °F 80% 30.09 in 10.0 mi WSW 3.5 mph - N/A   Overcast
6:53 PM 55.9 °F 48.0 °F 75% 30.04 in 10.0 mi NNW 3.5 mph - N/A   Overcast
7:53 PM 55.9 °F 48.9 °F 77% 30.04 in 10.0 mi Calm Calm - N/A   Overcast
8:53 PM 54.0 °F 50.0 °F 86% 30.06 in 10.0 mi South 4.6 mph - N/A   Mostly Cloudy
9:53 PM 53.1 °F 48.9 °F 86% 30.06 in 10.0 mi NW 3.5 mph - N/A   Overcast
10:53 PM 52.0 °F 46.0 °F 80% 30.07 in 10.0 mi North 3.5 mph - N/A   Overcast
11:53 PM 51.1 °F 46.9 °F 86% 30.07 in 10.0 mi WNW 3.5 mph - N/A   Overcast